Wind_Speed
33 33 32 32 32 33 34 34 34 34 35 35 34 34 34 33 34 34 35 35 35 36 36 37 38 39 40 40 40 41 41 41 41 41 41 41 42 42 42 42 42 42 42 42 42 42 42 42 42 42 42 42 43 43 43 43 43 44 44 44 44 45 45 45 45 45 45 45 44 44 44 43 43 43 43 43 43 43 43 43 43 42 41 41 41 41
32 33 32 32 32 33 35 35 34 34 35 35 35 35 34 34 35 35 35 35 36 36 37 37 38 39 40 41 41 41 41 41 41 41 41 42 42 42 42 43 43 43 43 42 42 42 42 42 42 42 42 42 43 43 43 43 43 44 44 44 44 45 45 45 45 46 46 45 45 45 45 44 44 44 44 44 44 44 43 43 43 42 41 41 42 42
33 33 33 32 32 33 34 35 34 33 34 35 35 35 35 35 35 35 35 35 35 36 36 37 37 39 40 41 41 41 41 41 41 41 42 42 42 42 43 43 43 43 43 43 43 43 43 43 43 43 43 43 43 43 43 43 43 43 44 44 44 44 45 45 45 45 46 46 46 46 45 45 45 45 45 44 44 44 44 44 43 43 43 43 43 43
33 32 33 32 32 33 34 34 34 34 33 34 34 35 35 35 35 35 35 35 35 35 36 37 38 38 39 40 40 40 40 40 41 41 41 42 42 42 42 42 43 43 43 43 43 43 43 43 43 43 43 43 43 43 43 43 43 43 44 44 44 44 44 45 45 45 46 46 46 46 46 46 45 45 45 45 45 45 45 45 45 45 45 45 45 45
33 32 33 32 32 33 34 34 34 34 33 33 34 34 34 34 34 34 34 34 35 35 35 36 36 37 38 38 39 40 40 40 40 41 41 41 42 42 42 42 43 43 43 43 43 43 43 43 44 44 44 44 44 44 44 44 44 44 44 44 44 44 45 45 45 45 45 46 46 46 46 46 46 46 45 45 45 45 45 45 46 46 46 46 46 45
34 33 32 32 32 33 34 34 33 32 32 32 33 33 33 33 33 33 34 34 34 34 35 35 35 36 38 39 40 40 41 41 41 41 42 42 42 43 43 43 43 43 43 43 44 44 44 44 44 44 45 45 45 45 45 45 45 45 45 45 45 45 45 45 45 45 46 46 46 46 46 46 46 46 46 45 45 45 45 46 46 46 46 46 46 46
34 34 33 32 32 33 33 34 33 32 31 31 32 33 33 33 33 33 34 34 34 35 35 36 36 37 38 40 41 42 42 42 42 42 42 42 43 43 43 43 44 44 44 44 44 45 45 45 45 45 45 46 46 46 46 46 46 46 46 45 45 45 45 46 46 46 46 46 46 46 46 46 46 46 46 46 46 45 46 46 46 46 46 46 46 46
34 35 34 33 32 32 33 34 33 32 31 31 31 32 33 33 33 33 34 34 34 35 35 36 36 37 38 39 40 40 40 40 41 41 41 42 42 42 42 43 43 43 44 44 45 45 45 46 46 46 46 46 46 46 46 46 46 46 46 46 46 46 46 46 46 46 46 46 46 46 46 46 46 46 46 46 46 46 45 46 46 46 46 46 46 47
34 34 35 34 33 32 33 34 34 32 31 31 31 31 32 33 33 34 34 34 34 34 34 34 35 36 37 38 38 38 39 39 39 39 39 40 40 41 41 41 41 42 42 43 44 45 45 45 46 46 46 46 47 47 46 46 46 46 46 46 46 46 46 45 46 46 46 46 46 46 46 46 46 46 46 46 45 45 45 45 45 45 46 46 47 47
34 34 34 34 33 32 32 33 34 33 32 31 31 32 31 32 32 32 33 34 34 33 32 32 34 35 37 37 37 37 37 38 39 39 39 40 40 40 40 40 40 40 41 42 43 44 44 45 45 46 46 46 47 46 46 46 46 46 46 46 46 46 46 45 45 46 46 46 46 46 46 46 46 46 46 46 45 45 45 45 45 45 46 46 47 47
32 33 32 32 33 32 32 32 32 32 31 31 31 31 31 30 30 29 30 32 33 34 33 32 33 34 36 36 36 35 35 35 37 38 39 40 41 41 41 42 41 41 42 43 43 44 44 45 45 46 46 47 47 47 47 47 47 47 47 46 46 46 46 46 45 45 45 45 45 45 45 46 46 46 46 46 46 46 46 46 45 46 46 46 46 47
30 30 30 31 31 31 31 31 32 31 30 28 27 27 29 29 29 28 27 29 31 33 33 33 33 33 34 34 34 34 33 32 32 33 35 36 37 38 38 39 40 41 42 42 43 44 44 45 45 46 46 46 47 47 47 47 47 47 47 47 46 46 46 46 46 45 45 45 45 45 45 45 45 45 45 45 46 46 46 46 46 46 46 46 46 46
30 30 30 30 30 30 30 30 30 29 28 26 24 23 25 28 29 28 28 29 31 33 33 33 34 35 35 34 33 33 33 32 32 32 32 33 33 34 34 34 36 37 37 38 39 40 41 42 43 43 44 45 45 46 46 46 46 46 46 46 46 46 46 46 45 45 45 45 45 45 45 45 44 44 44 45 45 45 45 45 45 45 45 45 45 45
29 29 29 28 28 29 29 28 27 26 27 27 27 27 29 30 30 29 29 30 32 33 33 34 35 36 36 36 35 34 33 33 33 34 34 34 35 34 33 33 34 34 34 35 36 38 38 38 38 39 40 41 42 43 43 44 44 44 45 45 45 45 45 45 45 45 45 45 45 45 44 44 43 44 44 44 44 44 44 45 45 45 44 44 44 44
27 26 24 23 25 27 28 28 28 28 29 30 31 31 32 31 31 30 29 29 31 33 33 33 34 36 37 36 35 33 32 32 32 33 34 36 36 36 34 34 34 34 35 35 35 36 37 37 37 37 38 39 40 41 42 42 42 43 43 43 44 44 44 44 44 44 44 44 44 44 44 43 43 43 43 43 43 43 44 44 44 44 43 43 43 43
28 26 22 21 24 27 29 29 28 29 31 32 31 31 30 30 30 30 29 29 30 31 29 28 26 27 31 35 35 31 29 28 29 29 32 34 36 35 33 33 33 34 35 35 36 37 37 37 37 37 38 39 40 41 42 42 42 42 42 43 43 43 43 43 43 43 43 43 43 44 44 43 43 43 43 43 43 43 43 43 43 43 43 43 43 43
29 27 25 24 25 28 31 31 31 31 32 32 31 31 30 29 30 30 29 30 29 28 25 22 15 11 17 30 34 30 26 24 25 26 29 32 34 34 32 31 31 32 34 36 37 37 37 37 37 38 38 39 40 41 41 42 42 43 43 43 43 43 43 43 43 43 43 44 44 44 44 44 44 44 44 44 44 43 43 43 43 43 43 43 43 43
30 29 28 26 27 30 32 33 33 32 32 31 31 31 31 31 30 29 29 29 27 25 23 22 17 11 9 12 24 32 27 25 24 24 25 28 30 32 31 31 32 33 33 35 36 37 37 37 37 38 39 40 41 42 42 42 43 43 44 44 44 44 44 44 44 44 44 44 44 45 45 45 45 45 45 45 45 44 44 44 44 44 44 44 44 44
32 32 30 29 30 32 33 34 33 32 31 31 31 31 32 32 32 30 28 28 26 24 23 20 18 18 18 22 30 35 32 28 26 24 23 26 29 30 29 27 28 30 32 34 35 36 36 36 36 38 39 41 42 43 43 44 44 45 45 45 45 45 45 45 45 45 45 45 45 45 46 46 46 46 46 46 46 45 45 45 45 45 45 45 45 45
35 36 35 34 34 34 35 35 35 35 34 34 33 32 31 33 34 34 33 32 30 29 28 25 23 25 29 33 37 38 35 31 28 25 24 26 30 31 28 25 25 26 29 34 36 35 35 36 37 40 41 42 43 44 44 45 45 46 46 46 46 46 46 46 46 46 46 46 46 46 46 47 47 46 46 46 46 46 46 46 46 46 47 47 47 47
37 39 41 40 38 35 33 36 38 38 38 36 33 31 30 31 32 32 32 32 31 30 29 26 26 29 33 35 38 39 36 31 26 23 23 24 28 32 33 29 27 26 29 34 37 37 35 35 37 38 40 41 43 44 45 45 46 46 46 46 46 47 47 47 47 47 47 47 47 47 47 47 47 47 47 47 47 47 47 47 47 47 47 47 47 47
40 42 45 44 42 40 39 41 42 42 40 38 35 32 31 31 31 30 31 30 29 29 31 30 32 36 37 39 41 42 39 33 28 25 22 19 24 34 38 35 31 30 31 35 37 37 35 35 36 38 39 41 42 43 44 45 45 46 46 46 46 46 47 47 47 47 47 47 47 48 48 48 48 48 48 48 47 47 47 48 48 48 48 48 48 48
43 45 48 47 45 43 44 44 44 42 40 37 37 38 37 35 32 31 32 33 33 34 34 35 38 40 41 42 43 43 41 37 32 28 23 15 20 32 39 36 33 32 34 36 37 36 34 34 36 37 39 41 43 44 44 45 45 45 46 46 46 46 46 46 46 47 47 47 48 48 48 48 48 48 48 48 48 48 48 48 48 48 48 49 48 48
44 45 47 46 44 42 42 41 41 40 39 37 37 38 39 38 37 38 40 41 41 40 38 38 37 38 41 41 40 40 39 37 33 29 23 16 21 31 38 36 33 32 35 38 38 36 34 34 36 37 37 40 42 43 43 44 45 45 45 45 45 46 46 46 46 46 47 47 47 47 48 48 48 48 48 48 48 48 48 48 48 48 48 48 48 48
42 42 41 41 41 41 41 41 41 40 39 38 38 37 37 35 36 38 39 38 37 36 36 35 32 30 33 34 35 36 36 34 30 27 24 20 25 32 37 35 32 31 33 37 38 36 34 35 36 38 38 39 40 41 42 42 43 44 44 44 45 45 45 45 46 46 46 46 47 47 47 47 48 48 48 48 48 48 48 48 48 48 48 48 48 48
39 40 41 42 43 44 44 45 44 43 42 41 38 35 33 33 33 32 31 29 28 27 25 21 18 19 24 27 28 30 32 30 27 26 24 21 22 27 34 35 32 30 32 35 36 35 33 34 36 37 37 37 38 38 40 40 40 41 42 43 44 44 44 45 45 45 46 46 46 46 47 47 47 47 48 48 48 48 48 48 48 48 48 48 48 49
38 40 42 44 46 47 48 48 47 46 46 45 45 43 41 38 35 32 30 29 28 25 19 12 12 15 19 21 24 29 31 29 27 26 25 22 19 21 29 33 32 29 29 32 33 33 33 33 35 37 37 37 36 37 38 38 39 39 40 41 42 43 43 44 44 44 45 45 45 46 46 46 47 47 47 47 48 48 48 48 48 48 48 48 47 47
40 41 42 43 43 44 44 44 44 44 44 44 44 43 41 38 34 31 31 33 32 28 22 16 14 14 13 13 22 32 34 32 29 28 27 23 17 18 28 32 30 28 27 28 30 32 32 33 35 36 36 36 36 36 37 37 38 38 39 40 41 42 42 43 43 44 44 44 45 45 45 45 46 46 46 47 47 47 47 47 47 47 47 46 45 43
36 36 36 36 37 38 39 40 40 40 40 40 40 39 37 34 31 30 31 33 31 26 22 19 16 14 14 16 24 31 32 33 32 31 28 22 18 20 29 30 29 27 25 23 24 27 30 33 34 34 33 34 35 35 36 36 37 37 38 39 40 41 42 42 43 43 43 44 44 44 44 45 45 45 46 46 46 46 47 47 47 46 45 44 42 40
30 30 31 33 35 35 36 36 37 37 37 37 37 36 35 33 32 32 32 31 29 25 22 21 20 19 17 17 18 18 21 28 31 29 25 18 15 19 27 27 26 25 23 16 12 14 20 27 31 32 30 31 33 34 35 36 36 36 37 38 39 39 40 41 42 42 43 43 43 44 44 44 45 45 45 45 46 46 46 46 46 44 43 41 39 37
31 31 31 33 34 33 33 32 33 33 33 33 33 33 32 32 32 32 31 30 29 27 25 23 23 23 20 12 8 7 8 23 28 25 21 16 15 18 24 22 22 24 22 16 7 3 8 13 22 29 28 28 30 32 34 35 36 36 37 37 38 38 39 40 40 41 41 42 42 43 44 44 44 45 45 45 45 45 46 46 45 43 42 39 37 35
32 31 31 32 31 30 29 29 29 29 29 29 29 30 30 30 31 31 31 31 30 29 28 27 26 26 25 17 12 10 11 25 29 26 22 17 17 20 22 20 20 22 23 21 14 8 6 4 14 25 27 26 27 29 32 33 34 35 36 36 37 38 39 39 38 37 38 39 40 41 42 43 44 44 44 45 45 45 45 45 45 44 41 38 35 33
30 29 29 29 28 28 27 27 27 27 27 27 28 28 29 29 30 31 31 31 31 30 29 28 27 27 27 24 22 22 25 31 32 30 27 23 20 20 22 21 20 21 22 23 22 18 12 9 14 23 27 28 28 28 29 31 32 32 33 33 35 36 38 38 36 35 36 36 37 38 39 40 41 42 43 44 44 44 44 45 45 44 42 39 36 34
28 27 27 27 27 26 26 26 26 27 27 27 28 29 29 29 30 31 31 32 32 32 31 30 28 26 25 23 23 26 31 34 33 30 28 26 22 21 22 21 21 20 20 19 20 20 17 18 18 19 21 26 29 28 28 29 30 31 32 32 33 35 36 36 35 34 35 34 34 35 36 37 38 40 40 41 42 43 43 43 44 44 43 42 39 35
26 26 27 26 25 25 26 27 27 27 27 27 27 28 29 29 30 30 31 32 32 32 32 32 31 30 28 24 21 22 29 33 33 31 29 27 24 22 22 21 22 21 19 17 15 12 9 14 17 16 13 16 22 27 28 29 29 30 31 33 34 35 36 37 35 34 34 34 34 34 35 35 36 36 37 38 39 40 41 42 42 43 43 43 42 39
25 25 25 25 24 24 24 25 25 25 25 26 26 27 28 29 29 30 30 31 32 32 33 33 34 33 33 31 28 28 31 35 36 34 31 29 27 23 20 21 23 23 20 17 14 11 7 8 13 16 14 9 13 21 28 29 29 29 30 32 34 35 37 38 37 35 34 33 33 33 34 35 35 35 36 37 38 39 40 41 42 42 43 43 43 42
23 23 24 24 23 23 23 24 24 24 24 25 26 26 27 28 28 29 30 31 32 32 33 34 34 35 35 35 35 36 37 38 38 37 35 34 31 26 22 22 23 24 22 18 16 14 11 9 10 11 10 9 8 12 22 27 27 25 27 29 31 33 35 36 37 36 35 34 33 33 34 34 35 35 36 37 37 38 39 40 41 41 42 43 44 44
22 22 23 23 23 23 23 23 23 24 24 25 26 27 28 30 31 32 32 33 33 34 33 33 34 35 36 37 38 40 40 41 40 40 39 38 35 31 26 25 25 25 25 23 21 18 12 9 9 9 8 8 12 17 23 25 24 23 24 27 29 30 32 34 35 36 35 34 34 35 35 35 35 35 35 36 35 35 35 36 38 39 40 41 42 43
22 23 24 24 24 23 23 24 25 25 26 27 28 29 31 32 33 33 33 33 33 33 34 34 34 34 35 37 38 39 40 41 42 42 42 41 38 35 30 27 26 27 27 27 25 22 16 12 9 9 9 8 12 19 25 25 23 22 23 24 25 28 30 32 33 34 34 34 34 34 34 35 34 34 34 34 33 32 31 32 34 35 35 35 37 39
22 22 23 24 24 24 24 25 26 27 28 30 32 32 32 32 32 31 31 31 30 30 31 31 32 32 33 34 35 36 38 38 39 40 39 39 38 35 31 28 26 26 26 26 25 24 22 18 16 15 14 11 9 13 20 23 23 22 21 18 18 22 25 28 30 32 33 34 33 33 32 33 34 33 33 32 32 31 31 31 32 33 33 32 31 31
22 24 24 25 25 25 25 26 28 29 30 31 31 30 29 28 27 27 27 27 27 27 27 27 28 29 30 31 32 33 34 34 33 30 27 25 25 25 25 24 22 22 22 21 21 20 19 17 16 17 17 16 14 15 18 19 20 20 19 15 15 18 21 23 25 27 29 31 32 32 32 31 31 31 31 31 32 33 33 33 33 33 33 32 30 28
23 24 25 25 26 26 26 28 29 30 30 30 28 27 26 25 24 24 24 24 24 23 24 23 23 24 24 26 26 25 21 17 14 14 15 17 19 19 18 18 17 17 16 16 15 16 16 16 15 14 14 13 12 9 9 13 15 14 13 14 15 18 19 20 20 21 22 25 27 29 29 28 29 30 30 30 32 33 34 34 34 33 32 31 31 30
23 24 25 25 26 27 28 28 28 27 26 25 24 23 24 24 24 24 23 22 22 22 22 21 21 20 20 19 18 17 15 15 15 16 16 17 17 17 16 16 17 16 15 14 13 14 15 15 14 13 14 14 13 11 9 13 15 16 16 17 17 16 12 15 18 19 19 21 23 25 26 26 27 28 28 29 30 31 31 32 33 33 31 31 31 30
23 24 24 25 26 26 26 25 24 23 23 23 22 22 23 24 24 23 22 21 21 21 21 20 19 18 16 14 13 14 17 17 15 14 13 13 14 14 14 13 13 12 11 10 9 9 10 10 11 12 13 14 13 12 11 12 13 15 16 17 16 14 11 14 18 20 19 20 21 22 23 24 25 25 26 26 27 28 28 29 30 31 31 32 32 32
23 23 24 24 24 23 23 23 23 23 23 22 22 22 22 23 24 23 21 20 20 20 19 19 17 14 11 11 11 13 15 16 16 15 13 12 11 10 9 8 8 8 8 8 8 9 9 9 10 13 15 14 12 11 10 10 11 13 14 14 14 14 16 19 19 18 18 18 18 19 19 19 20 20 21 21 22 24 25 26 27 29 30 31 32 33
22 22 23 23 23 23 23 23 23 22 22 22 21 21 22 23 23 22 21 20 19 19 18 18 15 11 8 9 11 12 12 13 14 15 14 12 9 7 7 6 6 7 8 9 9 9 10 11 12 14 14 13 12 11 11 11 11 11 12 13 14 14 15 16 16 16 16 16 16 16 14 14 14 15 15 16 17 19 21 23 25 27 28 30 31 32
22 22 23 23 23 23 23 23 22 22 22 21 21 21 21 22 22 21 20 20 19 18 17 16 14 11 9 10 10 11 10 11 12 13 14 13 11 8 7 6 6 6 7 8 9 9 10 12 13 15 14 10 8 8 10 12 11 11 12 13 13 13 12 13 15 16 16 15 15 14 12 11 11 12 12 12 13 15 17 20 22 25 26 28 29 30
22 22 23 23 23 23 23 22 22 21 21 21 21 22 21 21 21 20 19 19 18 17 16 15 13 12 11 11 12 12 11 11 11 13 14 15 14 13 12 12 12 12 11 10 9 9 10 11 12 13 13 11 7 6 9 11 12 12 12 13 13 12 12 13 14 16 15 15 14 13 12 11 10 9 9 10 10 12 14 18 21 23 25 26 28 29
21 21 22 22 22 22 22 22 22 21 21 21 21 21 21 21 20 19 18 18 17 16 14 13 13 12 11 11 12 13 13 12 12 12 13 15 16 16 17 17 17 16 14 11 8 7 8 9 9 10 12 13 11 10 10 11 12 13 13 13 13 12 12 13 14 15 15 15 14 13 12 10 9 9 10 9 9 10 14 17 20 22 23 24 26 29
21 21 21 21 21 21 21 21 21 21 20 21 21 21 21 20 19 19 18 17 16 15 14 13 13 12 10 11 12 13 13 12 12 12 13 14 15 16 16 16 16 14 12 10 8 8 8 8 8 9 10 13 13 13 11 11 12 13 13 13 13 13 12 13 14 15 15 14 14 13 12 12 13 13 12 9 9 10 13 15 17 19 21 22 23 24
21 21 21 21 20 20 20 20 20 19 20 20 20 20 19 19 18 18 18 17 16 15 14 14 13 12 11 11 12 13 13 12 12 12 13 15 15 15 14 13 13 11 8 6 5 6 6 5 5 5 8 12 14 15 14 12 12 11 11 12 13 13 13 13 14 15 14 14 13 13 14 14 15 15 14 11 8 7 9 11 14 17 20 22 23 22
Wind_Direction
282 284 286 286 287 287 286 285 285 286 286 286 285 285 284 283 282 281 280 279 278 277 277 276 276 275 275 275 275 275 274 274 274 274 274 274 273 273 273 273 273 273 273 273 272 272 272 272 272 272 272 272 272 272 272 272 272 271 271 272 272 272 272 273 273 273 273 274 274 274 274 274 274 275 274 274 273 272 271 270 270 271 271 272 273 273
283 284 285 285 285 285 285 285 284 284 284 284 284 284 284 283 282 281 280 279 277 276 276 275 275 275 274 274 274 274 273 273 273 273 272 272 272 272 272 272 272 272 272 272 272 272 272 271 271 271 271 271 271 271 271 271 271 271 270 270 271 271 271 271 272 272 273 273 273 273 274 274 274 274 274 274 273 272 271 270 270 271 271 271 272 272
284 285 285 285 284 283 283 284 284 283 282 282 283 283 282 282 281 280 280 279 278 276 275 274 274 274 274 273 273 273 272 272 272 272 272 271 271 271 271 271 271 271 271 271 271 271 271 270 270 270 270 270 270 270 270 270 270 270 270 270 270 270 270 270 271 272 272 272 273 273 273 273 273 273 273 273 273 272 271 270 270 270 270 270 270 271
283 283 284 285 284 282 281 283 284 283 282 282 282 281 281 280 279 279 279 278 278 276 275 274 273 273 272 273 272 272 271 271 271 271 271 270 270 270 270 271 270 270 270 270 270 270 269 269 270 270 270 270 269 269 269 269 269 269 269 269 269 269 269 269 270 270 271 272 272 272 273 273 272 272 272 272 272 271 270 269 269 269 269 269 269 269
280 280 282 284 284 283 282 282 283 283 283 282 281 281 280 278 278 278 278 278 277 276 275 273 272 272 271 271 271 271 271 271 270 270 269 269 269 269 269 269 269 269 269 269 269 269 269 269 269 269 269 269 269 269 268 268 268 268 268 268 268 268 268 268 268 269 270 270 271 272 272 272 272 272 271 271 271 270 269 269 268 268 268 268 268 268
279 280 281 282 282 282 283 283 283 283 284 283 282 281 279 278 278 277 277 277 276 275 275 274 273 272 271 270 270 270 270 270 270 269 268 268 268 268 268 268 268 268 268 268 268 269 269 269 269 269 269 269 269 269 269 268 268 268 267 267 267 267 267 267 267 268 268 269 270 270 271 271 271 271 271 270 270 269 269 268 268 267 267 267 268 268
280 280 281 280 280 280 281 282 282 282 282 282 282 282 280 279 278 277 276 275 274 274 275 274 274 272 270 269 269 269 269 269 269 268 267 267 267 267 267 267 267 267 267 267 267 268 268 268 268 268 268 268 268 268 268 268 268 268 268 267 267 267 266 266 267 267 268 268 269 269 270 270 270 270 270 269 269 268 268 267 267 267 267 267 267 267
281 281 280 279 279 280 280 280 280 279 279 279 280 281 281 280 279 277 276 274 273 273 274 274 274 272 270 268 268 268 267 267 267 267 266 266 265 265 265 264 264 265 265 265 266 266 266 266 266 267 267 267 268 268 268 269 268 268 268 268 267 267 267 266 266 267 267 267 268 268 269 269 269 269 269 269 268 268 267 267 266 266 266 266 267 267
278 280 280 279 278 279 281 281 279 278 277 275 276 277 278 279 279 279 278 276 274 272 272 273 273 272 271 269 268 267 267 266 265 264 264 264 264 264 264 263 263 263 263 263 264 264 265 265 265 265 266 266 267 267 268 268 268 268 268 268 267 267 267 267 267 267 267 267 267 267 268 268 268 268 268 268 268 267 267 266 266 266 266 266 266 266
274 276 278 278 277 277 278 279 279 278 276 274 272 271 272 274 277 279 279 277 276 274 272 270 271 272 272 272 269 267 266 264 263 262 262 262 262 262 262 262 261 261 261 262 262 263 264 264 264 264 264 265 265 266 266 266 266 267 267 267 267 267 267 267 267 267 266 266 266 267 267 267 267 267 267 267 267 267 266 266 266 265 265 266 266 266
274 274 275 277 277 276 275 275 277 278 277 274 272 270 268 268 270 273 275 276 276 275 273 270 269 270 271 273 271 268 265 263 262 262 261 261 260 260 260 260 260 259 260 260 261 262 262 263 263 263 263 263 264 264 264 265 265 265 265 265 266 266 266 266 266 266 266 266 266 266 266 266 266 266 266 266 266 266 265 265 265 265 265 265 265 266
274 275 276 277 278 278 277 276 277 277 277 274 272 271 269 267 265 265 267 271 274 275 275 273 270 268 268 269 270 269 266 264 262 261 261 259 258 258 258 258 258 258 259 258 259 260 260 261 261 262 262 262 262 263 263 263 263 263 263 264 264 264 265 265 265 265 265 265 265 265 265 266 266 266 266 265 265 264 264 264 264 264 264 264 265 265
273 275 276 276 276 277 277 278 278 277 275 272 270 270 271 271 269 266 265 266 270 273 275 275 274 272 269 267 267 268 268 266 265 264 262 261 259 257 256 256 256 256 256 257 257 257 258 258 259 260 260 261 261 261 261 261 261 261 262 262 262 263 263 264 264 264 264 264 264 264 265 265 265 265 265 265 264 264 263 263 263 263 263 264 264 264
274 275 275 275 275 275 276 276 276 275 274 272 270 270 272 273 272 270 268 268 269 272 274 274 274 274 273 271 269 268 267 267 266 266 264 263 261 259 256 255 255 255 254 255 256 256 256 256 257 258 259 259 259 260 260 260 260 260 260 260 261 262 262 263 263 263 263 264 264 264 264 264 264 265 265 264 264 263 263 262 262 263 263 263 264 264
275 276 276 275 275 276 276 276 275 274 274 273 273 273 273 273 272 270 269 269 271 273 274 274 275 275 274 273 271 268 265 264 263 263 263 263 261 258 255 254 254 255 255 255 255 255 255 255 255 255 257 257 258 259 259 259 259 260 260 260 260 261 262 262 263 263 263 263 263 263 263 264 264 264 265 264 264 263 262 262 262 262 263 263 263 263
276 276 276 276 276 277 276 276 275 274 274 274 274 273 272 271 270 269 268 269 272 273 274 275 275 276 276 276 274 269 263 259 257 258 259 261 261 259 255 252 252 253 254 254 255 256 256 254 254 254 255 256 257 258 258 259 259 259 260 260 261 261 262 262 263 263 263 263 263 263 263 263 263 264 264 264 263 263 262 262 262 262 262 262 263 263
276 276 275 276 276 277 277 276 275 274 274 274 274 272 270 268 268 268 267 268 270 272 271 272 272 274 279 280 278 273 266 259 256 256 258 261 262 260 256 251 249 250 252 255 255 255 255 254 253 253 254 255 256 257 258 258 259 259 260 260 261 261 262 262 262 262 262 263 263 263 263 263 263 263 263 263 263 262 262 261 261 261 261 262 262 262
276 275 275 275 275 276 277 276 275 274 274 274 273 272 270 268 267 266 266 266 267 268 269 270 269 269 276 280 280 278 274 268 263 262 261 261 262 262 257 251 249 249 250 252 253 253 253 252 250 250 252 255 257 258 258 259 259 260 260 260 261 261 261 262 262 262 262 262 262 262 262 262 262 262 263 262 262 262 261 261 261 261 261 261 261 262
275 275 274 274 274 274 275 275 275 274 274 273 274 274 272 271 269 267 265 265 264 264 266 268 269 270 271 274 276 277 276 273 270 267 265 265 265 264 259 252 247 247 249 250 251 252 252 250 249 250 252 255 257 258 259 260 260 260 260 260 261 261 261 261 261 261 261 261 262 262 262 262 262 262 262 262 262 261 261 260 260 261 261 261 261 261
274 273 271 272 273 273 273 273 273 273 273 273 273 272 271 271 271 270 269 268 267 267 267 267 268 269 271 273 275 276 276 274 271 268 267 267 268 266 261 253 248 246 249 253 254 253 253 252 254 255 255 256 257 257 258 259 259 259 259 260 260 260 260 261 261 261 261 261 261 261 262 262 262 262 262 262 261 261 261 260 260 261 261 261 261 260
268 269 270 270 271 272 271 272 273 273 272 272 272 271 269 270 270 270 270 270 269 269 268 267 266 268 270 272 274 275 275 274 271 269 269 268 268 266 264 260 254 251 252 256 258 258 256 254 255 255 254 255 256 257 257 258 258 258 258 259 259 259 260 260 260 260 260 260 261 261 261 261 261 261 261 261 261 261 261 261 261 261 261 261 260 260
264 267 269 270 270 270 271 272 273 273 273 272 272 270 270 270 271 271 271 270 270 269 270 269 269 270 271 272 273 274 274 272 269 268 269 269 268 268 268 265 261 258 258 259 260 260 258 256 255 255 255 255 256 256 257 257 257 257 258 258 258 259 259 259 259 259 260 260 260 260 260 260 260 261 261 261 261 261 261 261 261 261 261 260 260 259
262 265 269 270 269 268 269 271 272 272 272 272 271 270 270 270 271 271 271 271 271 271 270 271 271 272 271 271 272 272 272 270 267 265 265 263 265 268 269 268 264 261 260 261 262 261 259 257 255 254 254 256 257 256 256 257 257 257 257 258 258 258 258 258 258 259 259 259 259 260 260 260 260 260 260 260 260 260 261 261 261 261 261 260 260 260
261 264 266 267 267 267 267 268 270 271 272 271 269 268 268 268 268 269 270 271 271 271 271 272 272 272 271 270 270 270 270 268 264 261 259 259 265 268 269 268 265 263 261 261 261 261 259 258 257 256 255 256 257 256 256 256 257 257 257 258 258 258 258 258 258 258 258 258 259 259 259 259 260 260 260 260 260 261 261 261 261 261 261 261 261 261
266 267 267 268 268 268 269 271 273 274 274 272 270 270 271 271 270 270 269 268 268 269 270 270 270 270 270 270 270 270 269 267 262 256 254 258 264 266 267 265 263 261 261 262 262 262 260 259 259 258 257 257 256 256 256 256 256 257 257 257 257 258 258 258 258 258 258 258 259 259 259 259 260 260 260 260 261 261 261 261 261 262 262 262 262 262
278 277 277 277 278 280 282 285 286 285 282 281 282 283 284 283 281 277 273 269 269 269 269 267 266 268 271 272 272 271 272 270 263 255 251 255 261 264 265 263 261 259 261 262 263 262 260 259 259 259 258 257 256 256 257 256 256 256 256 257 257 257 257 257 257 258 258 258 258 259 259 259 260 260 261 261 261 262 262 262 262 262 262 263 263 264
286 285 285 286 287 288 290 290 290 288 286 286 287 288 288 288 286 282 279 276 276 277 275 271 270 273 276 275 274 275 275 274 269 261 255 253 256 261 262 262 261 260 260 262 263 262 260 259 259 259 258 258 257 257 258 257 257 256 256 257 257 257 257 257 258 258 258 258 258 258 258 259 259 260 261 261 262 262 263 263 263 263 263 263 264 264
286 285 285 286 287 288 288 288 287 286 286 286 285 285 285 284 282 280 278 280 280 279 276 273 275 278 279 276 277 278 278 276 272 268 262 257 255 258 261 263 262 260 260 262 263 263 260 259 258 258 258 258 258 258 258 258 258 257 257 257 257 257 257 257 257 257 257 257 257 257 257 258 259 260 261 261 262 263 263 263 263 263 263 264 264 264
287 287 288 288 288 289 289 289 288 287 286 285 285 284 282 279 277 275 276 278 278 276 273 271 272 274 276 278 279 279 277 274 272 269 265 259 256 258 261 263 262 261 261 263 265 265 262 260 258 257 257 257 258 258 258 258 257 257 257 257 256 256 256 256 255 256 255 256 256 256 257 258 258 259 260 261 261 262 262 263 263 263 263 263 263 262
296 296 295 294 293 292 291 290 289 287 286 285 284 283 280 276 273 272 273 274 273 271 270 270 270 271 273 276 277 276 273 272 271 268 263 259 257 259 262 263 262 260 259 262 265 266 263 262 260 258 255 255 255 255 255 255 255 254 255 255 255 255 254 254 254 254 254 254 255 255 256 257 257 258 259 259 260 261 262 262 262 263 263 263 262 262
302 301 299 297 295 293 291 289 288 287 286 285 284 282 279 275 272 270 269 268 267 266 266 267 268 268 268 269 268 268 269 273 273 270 264 259 259 262 263 263 262 260 256 253 254 269 267 265 264 262 258 255 253 252 252 252 252 252 252 253 253 253 253 253 253 253 253 253 254 254 255 255 256 257 258 259 259 260 260 261 261 262 262 262 262 262
302 300 297 296 295 293 291 289 287 286 285 284 283 281 278 275 272 269 267 265 263 262 262 264 264 265 264 262 261 263 268 273 274 273 268 264 263 263 263 261 261 259 255 248 245 252 266 273 271 269 266 261 258 256 255 254 252 251 251 251 252 253 254 254 253 253 252 253 253 254 255 255 256 256 257 258 259 259 260 260 260 260 261 261 261 262
300 298 296 295 294 292 290 288 286 285 284 282 281 280 279 276 273 270 267 264 261 259 258 259 261 262 262 262 261 263 266 270 272 272 269 266 265 265 263 259 257 256 255 249 246 246 252 259 268 270 269 266 264 263 261 259 257 255 253 251 251 253 255 256 254 253 253 253 253 254 255 256 256 257 257 258 258 259 259 259 259 259 259 260 261 261
299 297 296 294 292 290 289 287 286 284 283 281 281 280 278 276 273 271 268 265 262 259 256 256 256 258 260 262 263 264 266 268 269 270 268 264 262 263 262 258 256 255 255 253 249 248 251 254 260 265 268 268 267 265 263 262 261 259 257 254 253 254 256 256 255 254 253 253 253 254 254 255 256 257 257 257 258 258 258 258 258 258 258 259 260 261
297 297 297 295 292 291 290 291 289 287 284 282 281 280 278 276 274 272 270 267 265 262 259 257 256 256 257 259 262 266 268 270 271 271 268 263 261 261 261 257 255 255 256 255 254 252 252 255 256 259 264 267 267 266 264 262 261 260 259 257 255 255 255 256 255 254 254 253 253 254 254 254 255 255 255 255 256 256 256 256 257 257 257 258 258 259
297 296 296 296 295 294 292 292 291 289 287 285 284 282 281 279 277 275 273 271 269 266 264 261 259 258 257 258 260 263 267 271 273 272 269 264 261 258 258 257 256 255 255 255 255 255 255 258 258 258 258 260 266 267 267 265 263 260 258 256 255 254 254 255 254 253 252 252 252 253 253 254 254 254 254 254 254 254 254 256 256 257 257 258 258 258
295 296 298 298 297 297 295 294 293 292 291 290 289 287 286 284 282 280 278 277 275 272 270 268 265 263 261 260 260 262 265 269 271 271 268 265 261 258 256 257 256 255 253 254 254 255 255 257 259 258 254 252 256 266 268 268 266 261 257 255 254 253 254 254 254 252 251 250 251 251 252 253 253 253 254 255 255 255 256 256 256 257 258 258 258 257
297 298 300 300 300 299 298 297 296 295 294 294 293 292 291 289 288 286 284 283 281 278 276 274 272 270 268 266 264 264 266 267 268 268 267 265 262 258 255 256 256 254 252 251 252 254 254 254 256 257 255 253 256 262 266 268 267 264 261 258 257 255 254 254 254 252 250 249 250 251 251 252 252 252 253 254 254 254 255 255 256 256 257 257 258 257
300 301 302 303 303 302 301 299 298 297 296 295 294 293 293 292 290 289 287 286 285 284 282 280 278 276 274 272 271 270 270 269 268 268 267 265 263 259 256 255 255 255 253 252 251 250 250 252 253 256 259 260 262 263 265 265 265 264 264 263 261 258 256 255 254 252 250 249 249 250 251 251 251 250 251 251 252 252 252 253 254 255 255 255 257 258
302 302 303 303 303 302 300 299 298 298 297 297 296 295 294 293 292 291 291 291 290 289 288 286 283 282 280 279 278 277 276 274 272 270 268 266 264 261 258 256 255 255 255 253 251 250 250 252 254 257 259 262 265 268 268 266 265 264 265 266 265 262 258 256 254 252 251 249 248 248 249 250 250 249 249 250 249 250 250 252 254 255 254 253 253 255
303 304 304 304 303 302 300 299 299 299 298 297 296 295 295 294 295 296 297 298 297 296 295 293 291 289 287 286 285 283 281 279 277 274 272 270 268 267 265 263 263 263 263 262 261 259 257 259 262 264 265 267 270 272 272 272 272 272 271 270 271 271 270 266 261 257 253 251 249 248 249 250 250 250 250 250 250 250 251 251 253 254 254 253 251 249
304 304 304 304 303 302 301 301 301 300 300 299 297 296 297 299 301 302 303 303 302 302 301 300 297 295 293 292 292 292 292 293 295 295 292 289 286 283 281 280 281 283 286 288 287 284 281 281 282 283 285 288 289 289 289 291 292 293 291 288 290 293 291 283 275 267 260 256 254 252 251 250 250 251 251 251 251 252 252 252 252 253 253 253 251 249
302 302 302 302 302 302 302 303 303 303 303 302 301 301 303 305 307 307 306 305 305 305 306 305 304 301 299 298 302 309 318 321 319 315 310 305 301 299 299 299 298 299 301 302 299 295 295 295 296 298 304 310 311 309 306 303 301 298 295 293 294 295 290 287 284 279 272 265 261 257 255 253 253 253 253 253 254 254 254 254 255 254 253 253 252 251
300 301 302 303 304 305 306 306 306 306 306 305 305 305 307 309 311 311 309 308 308 309 310 311 311 309 306 308 316 325 330 333 333 331 327 324 321 319 315 314 313 313 316 320 319 316 317 314 312 312 315 315 310 303 297 296 297 295 292 291 287 282 276 281 284 284 281 274 269 264 260 258 258 258 259 258 258 257 257 256 256 255 254 253 252 251
301 303 304 307 308 308 308 308 309 309 309 308 308 309 310 313 315 315 313 311 311 312 314 317 317 316 315 319 322 325 328 334 338 340 341 340 337 335 335 336 340 348 358 6 3 354 341 328 321 320 320 315 305 296 294 295 297 298 297 297 292 284 279 282 285 286 285 282 278 273 270 267 265 264 262 261 259 258 257 256 256 255 255 254 252 250
306 307 308 310 310 310 310 310 311 311 311 311 311 313 315 317 318 318 316 315 315 316 317 319 320 319 317 319 321 323 324 329 335 340 344 347 350 355 1 7 12 18 20 19 15 5 349 331 322 320 318 314 307 299 296 297 298 298 299 302 300 296 293 293 293 293 292 290 289 288 286 281 273 266 260 260 260 260 260 258 257 256 256 255 253 251
310 310 311 312 312 312 312 313 314 314 314 314 315 317 319 321 321 321 320 320 320 319 320 321 321 318 315 317 320 323 323 325 328 333 338 340 343 347 352 356 356 354 350 348 346 345 341 336 329 323 319 316 310 307 309 308 305 303 303 305 305 303 301 301 303 305 305 302 299 300 303 298 283 271 266 269 272 273 272 271 268 266 263 261 258 255
311 311 312 312 313 313 314 316 317 317 317 318 319 321 322 323 324 324 323 324 324 324 324 326 325 323 321 322 325 326 326 325 326 328 331 333 331 327 323 320 317 315 313 313 317 322 328 333 334 331 328 328 325 320 321 321 319 314 312 313 313 311 309 308 310 312 312 310 309 311 312 305 293 285 287 290 290 289 287 285 283 281 277 272 266 261
311 311 312 313 314 315 316 318 319 319 319 321 322 323 324 325 326 327 326 326 326 326 327 328 328 327 326 328 329 331 331 329 327 327 328 330 330 327 325 323 321 318 315 315 320 327 330 335 343 347 348 349 346 339 334 331 329 327 325 324 322 319 315 313 314 314 315 315 317 321 324 323 322 320 315 311 305 301 297 293 292 291 289 284 277 270
313 313 313 314 314 314 316 319 320 321 322 323 323 324 325 326 327 328 329 329 329 329 329 330 329 328 327 329 332 334 334 332 330 329 329 331 332 333 331 333 333 333 333 337 347 352 346 338 343 354 2 7 6 1 353 342 337 336 334 332 330 327 321 317 316 316 317 319 324 332 340 347 351 350 341 328 312 302 299 296 296 299 303 302 296 287
315 316 316 316 315 315 317 319 321 322 323 324 324 324 325 326 328 330 332 332 332 332 331 332 332 331 330 331 333 335 335 333 332 332 333 336 337 338 337 341 344 344 342 344 347 346 339 330 328 339 353 6 15 19 16 2 351 345 340 338 336 333 327 322 320 321 322 325 332 343 353 358 360 356 346 331 316 303 301 302 306 312 320 325 325 321
Height
759 757 756 756 755 753 749 749 749 748 745 743 743 742 741 740 739 737 736 736 734 733 731 730 728 726 725 723 722 721 720 719 718 717 716 715 714 713 712 711 710 709 708 708 707 706 705 705 704 703 702 701 700 699 698 697 696 696 695 694 693 692 691 690 689 688 688 688 687 687 687 686 686 686 685 685 685 684 684 684 684 684 684 684 684 684
758 756 755 754 754 751 747 746 746 746 743 741 740 739 738 737 736 734 733 732 731 730 728 727 725 723 721 720 719 718 717 716 715 714 713 712 711 710 708 707 706 706 705 704 703 702 701 701 700 699 698 697 696 696 695 694 693 692 691 691 690 689 688 687 686 685 684 684 684 683 683 683 683 682 682 681 681 681 681 681 681 681 680 680 681 681
756 754 752 752 751 749 745 743 743 743 741 739 737 736 736 734 732 731 730 728 727 726 725 724 722 720 718 716 715 714 713 712 711 711 710 708 707 706 705 704 703 702 701 700 699 698 698 697 696 695 694 694 693 692 691 691 690 689 688 687 686 685 685 684 683 682 681 681 680 680 680 680 679 679 679 678 678 677 677 677 677 677 677 677 677 677
756 752 750 749 748 746 743 741 740 739 738 737 735 733 733 731 729 728 726 725 724 722 721 720 718 717 715 713 711 710 709 708 708 707 706 705 703 702 701 701 699 698 697 696 696 695 694 693 692 691 691 690 689 688 687 686 686 685 684 683 683 682 681 680 680 679 678 677 676 676 676 676 676 676 675 675 675 674 674 674 673 673 673 674 673 673
753 751 748 747 745 742 739 739 738 736 735 734 732 731 729 728 726 725 723 722 721 719 717 716 715 713 711 709 707 706 705 705 704 703 702 701 700 699 698 697 696 695 694 693 692 691 690 689 688 687 687 686 685 684 683 683 682 681 681 680 679 678 678 677 676 675 675 674 673 673 672 672 672 672 672 671 671 671 671 670 670 670 670 670 670 670
749 748 747 745 743 739 737 736 735 734 733 731 729 728 726 725 723 722 720 719 717 716 714 713 711 709 707 705 703 702 701 701 700 699 698 697 696 695 694 693 692 691 690 689 688 687 686 686 685 684 683 682 681 680 679 679 678 677 676 676 675 675 674 673 673 672 671 671 670 669 669 669 668 668 668 668 667 667 667 667 666 666 666 666 666 666
746 745 745 743 740 737 735 733 732 732 731 728 726 724 723 722 721 719 717 715 714 712 711 709 707 706 703 701 699 698 697 696 696 695 694 693 692 691 690 689 688 687 686 686 685 684 683 682 681 680 679 678 677 676 675 675 674 673 672 672 671 671 670 670 669 668 668 667 666 666 666 665 665 664 664 664 664 664 663 663 663 663 663 663 663 663
743 741 741 740 737 734 732 730 729 729 729 727 724 721 719 718 717 715 714 712 711 709 707 705 703 701 699 697 696 694 693 692 691 690 689 688 687 686 686 685 684 683 683 682 681 680 679 678 676 676 675 674 673 672 671 671 670 669 668 668 667 667 666 666 665 665 664 664 663 663 662 661 661 661 661 660 660 660 660 659 659 659 659 659 659 659
743 739 737 736 735 733 729 726 725 726 726 725 722 720 717 714 712 711 710 708 707 706 704 702 699 696 694 692 691 691 690 688 687 685 684 683 682 682 681 681 680 679 678 677 676 675 674 673 672 671 671 670 669 668 667 666 666 665 664 664 663 663 662 662 661 661 661 660 660 659 659 658 657 657 657 656 656 656 656 656 656 655 655 655 655 655
741 738 735 732 731 731 728 723 721 721 723 721 719 717 715 712 710 708 706 703 701 701 701 699 696 692 689 688 687 686 685 684 682 681 680 679 678 677 676 676 675 674 673 672 672 671 670 669 668 667 666 665 665 664 663 662 661 661 660 660 659 659 659 658 658 657 657 656 656 656 655 654 654 653 653 652 652 652 651 651 651 651 651 651 651 651
737 735 733 729 727 726 725 721 718 717 718 717 715 713 712 710 708 706 702 698 696 696 696 694 692 689 686 683 682 682 681 680 677 676 676 675 674 673 672 672 671 670 669 668 667 666 665 665 664 663 662 661 660 660 659 658 657 656 656 656 655 655 654 654 654 653 653 653 652 652 651 651 650 650 649 649 648 648 648 647 647 647 647 647 647 647
734 731 729 726 724 721 720 718 716 715 715 714 711 709 706 706 705 703 700 695 692 691 690 689 687 685 683 681 679 678 678 676 674 672 671 670 669 669 668 667 666 665 665 663 662 661 661 660 659 658 658 657 656 655 654 654 653 652 652 651 651 651 650 650 650 649 649 649 648 648 647 647 646 646 645 645 644 644 644 643 643 643 643 643 643 644
731 728 726 723 720 718 716 715 713 712 711 710 708 705 702 701 701 700 696 692 689 687 686 684 681 679 678 677 676 675 674 672 671 669 667 666 665 664 664 663 661 661 660 659 658 656 656 655 655 654 653 652 651 651 650 649 649 648 648 647 646 646 646 646 645 645 645 645 644 644 643 643 642 642 641 641 640 640 640 639 639 639 639 639 639 639
727 725 723 719 716 714 713 712 710 708 706 705 703 701 699 697 696 695 693 689 685 684 683 680 676 674 672 672 672 671 671 669 667 665 663 661 660 660 660 658 657 656 656 655 653 651 651 651 650 650 649 648 647 646 646 645 645 644 644 643 642 642 642 641 641 641 641 640 640 640 639 639 638 638 637 637 636 636 636 636 635 635 635 635 635 635
724 721 719 716 712 710 709 708 706 704 701 700 699 697 695 694 692 691 689 685 682 680 679 676 672 669 666 666 666 667 666 665 663 661 658 656 654 655 655 654 653 652 651 650 648 646 646 647 646 645 644 644 643 642 641 641 641 640 640 639 639 638 638 637 637 637 636 636 636 636 635 635 635 634 633 633 632 632 632 631 631 631 631 631 631 631
721 719 716 712 709 706 705 704 702 700 697 696 695 694 692 690 688 687 685 682 679 677 676 673 668 664 660 659 661 662 662 661 659 656 654 651 649 650 651 651 649 647 646 646 644 642 642 642 641 641 640 639 638 637 637 637 636 636 635 635 635 634 634 633 633 633 632 632 632 631 631 631 631 630 630 629 629 628 628 628 627 627 627 627 627 627
718 715 712 709 706 702 701 700 699 696 694 693 691 690 689 686 684 682 681 678 676 674 672 670 666 661 655 652 653 657 659 657 655 653 651 647 644 645 647 647 645 642 641 640 639 638 637 637 636 636 635 634 634 633 633 633 632 632 631 631 631 630 630 629 629 629 628 628 628 627 627 627 626 626 626 625 625 625 624 624 623 623 623 623 623 623
714 712 709 706 702 699 697 696 694 693 691 689 688 686 685 683 681 679 677 675 673 671 668 666 662 659 654 649 647 650 656 655 653 650 648 644 640 640 642 642 641 638 636 634 633 632 632 631 631 630 630 629 630 629 629 629 628 627 627 626 626 626 626 625 625 624 624 624 624 623 623 623 622 622 621 621 621 621 620 620 619 619 619 618 618 618
710 708 706 702 699 696 694 692 691 689 688 686 684 682 680 678 677 675 673 671 669 667 665 662 659 655 652 647 644 646 651 652 650 647 645 641 637 636 637 638 637 635 632 630 628 627 627 627 626 626 625 625 625 625 624 624 623 623 623 622 622 621 621 621 621 620 620 620 619 619 619 618 618 618 617 617 616 616 616 615 615 615 614 614 614 614
705 703 701 699 696 692 689 687 686 686 685 683 681 679 676 674 672 671 669 667 665 664 661 659 655 651 648 645 642 642 646 649 648 645 642 638 634 632 633 634 633 631 628 626 624 624 624 623 622 622 621 621 620 620 619 619 618 618 618 617 617 617 617 616 616 616 616 616 615 615 615 614 614 614 613 613 612 612 611 611 611 610 610 609 609 609
701 697 694 695 693 689 685 683 682 681 681 680 679 676 673 671 668 666 665 664 662 660 658 655 651 647 645 642 639 638 642 645 645 642 639 635 631 627 628 630 630 628 624 621 620 620 620 619 618 617 616 615 615 615 614 614 613 613 613 613 613 612 612 612 612 612 611 611 611 611 610 610 610 609 609 608 608 607 607 606 606 606 605 605 604 604
696 691 689 690 690 687 682 679 678 677 678 678 676 673 670 668 666 663 661 661 659 656 654 651 647 644 642 639 636 635 639 641 641 640 637 633 626 621 621 625 626 624 620 616 615 615 616 615 614 612 611 610 610 610 609 609 609 608 608 608 608 608 608 608 608 607 607 607 607 606 606 606 605 605 604 604 603 603 602 602 601 601 600 600 600 599
692 688 686 686 685 683 680 677 675 674 675 675 673 670 668 666 663 661 659 657 656 653 650 647 644 641 639 636 633 632 634 637 638 637 635 629 621 616 616 620 621 619 615 612 611 611 611 611 609 607 606 605 605 605 604 604 604 604 604 604 603 603 603 603 603 603 603 603 602 602 601 601 601 600 600 599 599 598 598 597 597 596 596 595 595 594
689 685 683 681 681 679 677 675 673 672 672 671 669 666 664 663 661 658 656 654 652 650 647 645 641 637 633 631 630 628 628 631 633 633 631 625 618 613 612 615 616 614 610 607 607 607 607 606 604 602 601 600 600 600 600 600 600 599 599 599 599 599 599 599 599 599 598 598 598 597 597 596 596 596 595 595 594 593 593 592 592 591 591 590 590 589
686 683 680 678 676 675 674 672 671 670 669 667 665 662 661 659 657 655 652 651 649 647 645 642 638 633 628 627 626 624 623 626 629 629 626 622 616 611 609 610 611 609 604 602 602 604 603 601 599 598 597 596 595 595 595 595 595 595 595 595 595 595 595 595 594 594 594 594 593 593 592 592 591 591 591 590 589 589 588 588 587 587 586 586 585 585
684 681 679 676 674 673 671 670 669 667 666 665 663 661 659 657 655 651 649 647 646 645 643 639 634 629 626 624 622 619 619 622 624 624 622 619 614 608 605 605 606 605 601 599 599 600 599 597 595 594 593 592 591 591 591 591 591 591 591 591 591 590 590 590 590 590 589 589 589 588 588 587 587 586 586 585 585 584 584 583 583 582 582 581 581 581
682 680 677 675 672 670 668 667 665 664 663 662 661 660 658 656 652 648 645 643 644 643 641 636 631 626 623 621 618 616 616 618 619 619 618 616 612 606 600 600 601 601 599 596 595 595 595 593 591 589 589 588 587 587 587 587 587 587 586 586 586 586 586 586 585 585 585 584 584 584 583 583 582 582 581 581 580 580 579 579 578 578 578 577 577 576
678 676 673 671 669 667 665 663 661 660 659 658 657 656 656 654 650 645 641 641 641 641 637 633 629 625 621 617 614 612 612 614 614 614 615 613 609 602 596 596 598 599 597 594 592 591 591 589 587 585 584 584 584 583 583 583 582 582 582 582 581 581 581 581 581 580 580 580 579 579 579 578 578 577 577 576 576 576 575 574 574 574 574 573 572 571
673 671 670 668 666 664 662 660 658 656 655 654 653 652 652 651 647 643 639 639 639 637 634 631 628 625 621 616 613 610 609 609 609 610 611 610 604 598 594 594 595 595 594 592 590 588 586 584 582 581 580 580 580 579 579 578 578 578 577 577 577 576 576 576 576 575 575 575 575 575 574 574 574 573 573 572 571 571 571 570 570 570 570 569 568 567
670 668 666 665 663 661 659 657 655 653 651 650 649 648 647 646 644 641 638 637 636 634 631 627 625 623 620 616 612 608 604 602 604 606 608 606 600 595 592 593 592 592 592 591 589 585 580 577 577 577 577 576 576 575 574 574 573 573 572 572 572 571 571 571 571 571 571 571 570 570 570 570 569 569 568 568 567 567 566 566 566 566 565 564 563 562
667 666 664 661 660 658 656 654 652 650 648 646 645 644 643 642 640 638 636 634 633 631 628 625 622 620 618 616 611 606 599 596 599 603 604 602 597 593 591 591 590 589 590 590 588 583 576 573 571 572 573 573 571 570 569 569 568 568 568 567 567 566 566 566 566 566 566 566 566 566 565 565 565 564 564 563 563 562 562 562 562 562 561 560 559 558
665 663 661 659 657 655 653 651 649 647 645 643 642 641 639 638 636 634 633 631 629 627 625 622 619 617 615 613 609 603 597 594 596 600 601 599 595 591 590 589 588 586 586 586 585 581 576 571 568 568 570 569 568 566 565 565 564 564 564 563 563 562 561 562 562 562 562 562 561 561 561 561 560 560 560 559 559 558 558 557 558 558 557 556 556 555
663 661 659 656 654 652 651 649 646 645 643 641 639 637 636 634 632 631 629 627 625 623 621 618 616 613 611 608 605 601 596 593 594 596 598 596 592 589 587 586 585 583 582 582 581 579 576 570 567 566 566 566 565 564 563 562 561 561 561 561 560 558 558 558 558 558 558 557 557 557 556 556 556 556 555 555 554 554 554 553 553 553 553 552 551 550
661 659 656 654 652 650 648 646 644 642 640 638 636 634 632 631 629 627 625 623 621 619 617 615 612 610 607 604 601 597 593 591 591 593 594 593 590 586 584 583 581 580 579 578 576 575 572 569 567 565 564 562 561 561 560 559 559 558 558 558 557 556 555 555 555 555 554 554 553 553 552 552 551 551 551 551 550 550 549 549 549 549 549 548 547 547
659 656 654 652 650 647 645 643 641 639 637 635 633 631 629 627 625 623 621 619 617 615 613 611 609 606 604 601 597 593 589 587 589 590 591 590 587 584 581 579 578 577 577 575 573 571 569 566 565 564 563 560 558 557 557 556 556 555 555 554 553 552 551 551 551 551 550 550 550 549 548 547 547 547 546 546 546 545 545 544 544 544 544 544 543 543
657 655 652 650 648 646 643 641 639 636 635 632 630 628 626 624 622 620 618 616 614 611 610 607 605 603 601 598 595 591 587 585 586 587 586 586 584 581 578 575 574 575 574 572 570 569 566 564 562 561 561 558 555 553 552 553 553 552 551 550 549 548 547 547 547 547 547 546 546 545 544 544 543 542 541 541 541 540 540 540 540 539 539 539 539 538
656 653 650 648 646 644 641 639 636 635 632 630 628 626 624 622 620 617 615 613 611 608 606 604 602 600 597 595 592 589 586 584 583 582 582 581 580 578 575 572 571 571 571 569 567 566 564 562 560 558 557 556 553 551 549 549 549 549 547 546 545 545 544 543 543 543 543 542 541 541 540 540 539 538 537 536 536 536 536 535 535 535 534 534 533 533
655 651 649 646 645 642 640 637 635 633 631 628 626 624 621 619 617 615 612 610 607 605 603 601 598 596 594 592 589 586 584 582 580 579 578 577 576 574 572 570 568 568 568 566 565 563 562 560 557 556 553 551 550 548 547 546 546 545 543 542 542 541 540 540 539 539 539 538 537 536 536 535 534 534 533 532 532 531 531 530 530 529 529 529 528 527
653 650 647 645 643 641 639 636 634 631 629 626 624 621 619 616 614 611 609 607 605 602 600 598 595 593 590 588 586 583 581 579 577 575 574 573 571 571 569 567 566 565 564 563 562 561 559 557 555 553 550 548 546 544 544 544 543 542 541 540 539 538 536 536 536 535 535 534 533 532 531 530 530 529 528 528 527 527 526 525 525 524 524 524 523 522
651 649 646 644 642 640 637 635 632 630 627 624 621 619 616 613 611 608 606 604 602 600 597 595 592 590 587 585 583 581 578 576 574 572 571 569 568 567 566 565 563 562 561 560 559 557 556 554 552 550 548 546 544 542 541 541 540 540 539 538 536 533 532 532 532 531 530 529 529 528 527 526 525 525 524 524 523 523 522 521 520 520 520 520 519 517
651 647 645 642 640 638 636 633 631 628 625 622 619 616 614 611 609 606 604 601 600 597 595 593 590 587 585 582 580 577 575 573 571 570 569 568 567 566 564 563 561 560 559 558 557 555 554 552 551 549 547 546 543 541 540 538 538 538 537 536 533 531 530 530 529 528 527 526 525 524 523 522 521 521 520 519 518 518 517 517 516 515 515 515 514 513
650 647 644 641 639 636 634 631 628 626 623 621 618 615 612 610 608 605 603 600 598 595 593 591 588 586 582 580 577 576 574 572 571 569 567 566 564 563 562 561 560 559 559 557 556 555 554 553 551 549 547 546 544 541 539 538 537 537 537 535 533 531 529 527 527 526 526 524 522 521 521 519 518 517 516 515 514 513 513 513 512 512 511 510 509 509
648 646 643 640 637 635 632 629 627 624 621 619 616 614 611 610 607 605 602 599 596 594 592 590 587 584 581 578 576 575 573 571 570 568 566 565 564 562 561 560 559 558 558 557 556 554 553 552 551 550 548 546 545 543 541 539 538 537 536 536 535 533 530 526 525 524 524 522 521 520 518 517 516 514 513 512 511 510 510 509 508 508 507 506 505 504
647 644 641 639 636 633 631 628 626 623 621 618 615 613 611 609 606 604 601 599 596 593 591 589 586 584 581 578 576 574 572 571 570 568 566 565 564 562 561 560 559 558 557 556 555 554 553 552 551 550 549 547 546 544 542 540 538 536 535 534 533 532 529 526 524 523 522 520 519 517 516 515 513 512 511 510 508 507 507 506 505 504 503 502 502 500
646 643 640 638 635 632 630 627 625 622 620 617 615 612 610 608 606 604 601 598 596 593 591 588 586 584 581 579 577 575 572 571 569 568 566 565 564 562 561 560 559 558 557 556 556 555 554 552 551 549 548 546 545 544 542 540 538 536 534 532 531 530 527 525 523 522 520 518 517 515 514 513 512 511 509 507 506 505 503 502 502 500 499 498 497 495
646 642 640 637 634 632 629 626 624 621 619 616 614 611 609 607 605 603 601 598 596 593 591 588 586 584 582 579 577 575 573 571 569 567 566 565 564 562 561 560 559 558 557 556 556 555 554 552 551 549 547 546 544 542 541 540 538 536 533 531 530 528 526 524 522 521 519 517 516 514 513 512 510 509 507 505 503 502 501 499 498 497 495 493 492 490
645 642 639 636 634 631 628 626 623 621 618 616 613 611 609 607 605 602 600 598 596 593 591 588 586 584 582 580 578 576 573 571 569 568 566 565 564 563 561 561 560 559 558 556 556 555 554 552 551 550 548 546 544 542 540 539 537 536 533 531 529 527 525 523 521 520 519 517 515 513 512 510 508 507 505 503 502 500 498 496 495 493 491 489 487 484
644 641 638 636 633 630 628 625 623 620 618 615 613 611 609 606 605 602 600 598 596 593 591 589 586 584 582 580 578 576 575 572 571 568 567 566 564 563 562 561 560 559 557 556 556 555 554 552 551 550 548 546 544 542 540 538 537 535 533 531 529 527 525 523 521 520 518 516 514 512 511 509 507 505 503 502 499 497 495 493 491 489 487 484 482 479
644 641 638 636 633 630 627 625 622 620 618 615 613 610 608 606 605 603 601 598 596 594 592 590 587 585 583 581 579 577 575 573 571 570 568 566 565 563 562 561 559 558 557 556 555 555 554 552 551 550 548 547 545 542 540 538 536 535 533 531 529 527 525 523 521 519 517 516 514 512 510 508 506 504 502 500 498 496 493 491 488 486 483 481 478 475
643 641 638 636 633 630 627 625 622 620 618 616 613 611 608 606 604 602 601 599 596 595 592 591 588 586 584 582 580 578 576 575 573 571 569 567 565 564 562 561 559 558 557 556 555 554 553 552 551 550 548 547 545 543 541 539 536 535 533 531 529 527 526 523 521 519 517 515 513 511 509 507 505 503 502 500 498 496 493 490 487 484 481 478 474 470
642 640 637 635 632 630 627 625 623 621 618 616 614 611 609 606 604 602 601 599 597 595 593 591 589 587 585 583 581 579 577 576 574 572 570 568 566 565 563 561 560 559 558 557 556 555 554 552 551 549 548 546 545 543 541 539 537 535 533 531 529 527 526 524 521 519 517 515 513 511 508 506 504 502 502 500 498 495 492 489 485 482 478 475 470 466